STARLINK BA

Last updated on June 19, 2020, 12:02 a.m. UTC

1 45778U 20038BA  20170.66667824  .00093666  11272-4  11749-3 0  9991
2 45778  53.0001 272.2386 0111491  69.4260  27.2815 15.96077939  2122

Satellite is not in orbit.